Year,Month,Day,Hour,Minute,Value (Times are PST for temperature in C)
2014,07,12,00,00,20.60
2014,07,12,00,01,20.60
2014,07,12,00,02,20.50
2014,07,12,00,03,20.50
2014,07,12,00,04,20.50
2014,07,12,00,05,20.40
2014,07,12,00,06,20.40
2014,07,12,00,07,20.40
2014,07,12,00,08,20.40
2014,07,12,00,09,20.50
2014,07,12,00,10,20.50
2014,07,12,00,11,20.50
2014,07,12,00,12,20.50
2014,07,12,00,13,20.50
2014,07,12,00,14,20.40
2014,07,12,00,15,20.40
2014,07,12,00,16,20.40
2014,07,12,00,17,20.40
2014,07,12,00,18,20.30
2014,07,12,00,19,20.30
2014,07,12,00,20,20.30
2014,07,12,00,21,20.30
2014,07,12,00,22,20.30
2014,07,12,00,23,20.30
2014,07,12,00,24,20.40
2014,07,12,00,25,20.50
2014,07,12,00,26,20.60
2014,07,12,00,27,20.70
2014,07,12,00,28,20.70
2014,07,12,00,29,20.70
2014,07,12,00,30,20.70
2014,07,12,00,31,20.70
2014,07,12,00,32,20.70
2014,07,12,00,33,20.70
2014,07,12,00,34,20.70
2014,07,12,00,35,20.70
2014,07,12,00,36,20.60
2014,07,12,00,37,20.60
2014,07,12,00,38,20.50
2014,07,12,00,39,20.40
2014,07,12,00,40,20.30
2014,07,12,00,41,20.20
2014,07,12,00,42,20.10
2014,07,12,00,43,20.10
2014,07,12,00,44,20.00
2014,07,12,00,45,19.90
2014,07,12,00,46,19.80
2014,07,12,00,47,19.70
2014,07,12,00,48,19.60
2014,07,12,00,49,19.60
2014,07,12,00,50,19.50
2014,07,12,00,51,19.50
2014,07,12,00,52,19.50
2014,07,12,00,53,19.50
2014,07,12,00,54,19.50
2014,07,12,00,55,19.50
2014,07,12,00,56,19.60
2014,07,12,00,57,19.60
2014,07,12,00,58,19.60
2014,07,12,00,59,19.60
2014,07,12,01,00,19.60
2014,07,12,01,01,19.60
2014,07,12,01,02,19.60
2014,07,12,01,03,19.60
2014,07,12,01,04,19.70
2014,07,12,01,05,19.70
2014,07,12,01,06,19.70
2014,07,12,01,07,19.70
2014,07,12,01,08,19.70
2014,07,12,01,09,19.70
2014,07,12,01,10,19.60
2014,07,12,01,11,19.60
2014,07,12,01,12,19.60
2014,07,12,01,13,19.60
2014,07,12,01,14,19.60
2014,07,12,01,15,19.60
2014,07,12,01,16,19.60
2014,07,12,01,17,19.60
2014,07,12,01,18,19.50
2014,07,12,01,19,19.50
2014,07,12,01,20,19.50
2014,07,12,01,21,19.50
2014,07,12,01,22,19.50
2014,07,12,01,23,19.40
2014,07,12,01,24,19.40
2014,07,12,01,25,19.40
2014,07,12,01,26,19.30
2014,07,12,01,27,19.30
2014,07,12,01,28,19.30
2014,07,12,01,29,19.30
2014,07,12,01,30,19.30
2014,07,12,01,31,19.30
2014,07,12,01,32,19.20
2014,07,12,01,33,19.20
2014,07,12,01,34,19.20
2014,07,12,01,35,19.10
2014,07,12,01,36,19.10
2014,07,12,01,37,19.00
2014,07,12,01,38,19.00
2014,07,12,01,39,18.90
2014,07,12,01,40,18.90
2014,07,12,01,41,18.90
2014,07,12,01,42,18.80
2014,07,12,01,43,18.80
2014,07,12,01,44,18.70
2014,07,12,01,45,18.70
2014,07,12,01,46,18.70
2014,07,12,01,47,18.70
2014,07,12,01,48,18.70
2014,07,12,01,49,18.70
2014,07,12,01,50,18.70
2014,07,12,01,51,18.70
2014,07,12,01,52,18.60
2014,07,12,01,53,18.60
2014,07,12,01,54,18.50
2014,07,12,01,55,18.50
2014,07,12,01,56,18.40
2014,07,12,01,57,18.40
2014,07,12,01,58,18.40
2014,07,12,01,59,18.40
2014,07,12,02,00,18.40
2014,07,12,02,01,18.30
2014,07,12,02,02,18.30
2014,07,12,02,03,18.30
2014,07,12,02,04,18.40
2014,07,12,02,05,18.30
2014,07,12,02,06,18.30
2014,07,12,02,07,18.40
2014,07,12,02,08,18.40
2014,07,12,02,09,18.40
2014,07,12,02,10,18.50
2014,07,12,02,11,18.50
2014,07,12,02,12,18.40
2014,07,12,02,13,18.40
2014,07,12,02,14,18.40
2014,07,12,02,15,18.40
2014,07,12,02,16,18.40
2014,07,12,02,17,18.40
2014,07,12,02,18,18.30
2014,07,12,02,19,18.30
2014,07,12,02,20,18.30
2014,07,12,02,21,18.30
2014,07,12,02,22,18.20
2014,07,12,02,23,18.20
2014,07,12,02,24,18.20
2014,07,12,02,25,18.20
2014,07,12,02,26,18.20
2014,07,12,02,27,18.20
2014,07,12,02,28,18.10
2014,07,12,02,29,18.10
2014,07,12,02,30,18.10
2014,07,12,02,31,18.00
2014,07,12,02,32,18.00
2014,07,12,02,33,17.90
2014,07,12,02,34,17.90
2014,07,12,02,35,17.80
2014,07,12,02,36,17.80
2014,07,12,02,37,17.80
2014,07,12,02,38,17.80
2014,07,12,02,39,17.80
2014,07,12,02,40,17.80
2014,07,12,02,41,17.80
2014,07,12,02,42,17.80
2014,07,12,02,43,17.80
2014,07,12,02,44,17.80
2014,07,12,02,45,17.70
2014,07,12,02,46,17.70
2014,07,12,02,47,17.70
2014,07,12,02,48,17.70
2014,07,12,02,49,17.60
2014,07,12,02,50,17.60
2014,07,12,02,51,17.50
2014,07,12,02,52,17.40
2014,07,12,02,53,17.40
2014,07,12,02,54,17.30
2014,07,12,02,55,17.20
2014,07,12,02,56,17.20
2014,07,12,02,57,17.20
2014,07,12,02,58,17.10
2014,07,12,02,59,17.10
2014,07,12,03,00,17.10
2014,07,12,03,01,17.20
2014,07,12,03,02,17.20
2014,07,12,03,03,17.20
2014,07,12,03,04,17.30
2014,07,12,03,05,17.30
2014,07,12,03,06,17.30
2014,07,12,03,07,17.30
2014,07,12,03,08,17.40
2014,07,12,03,09,17.40
2014,07,12,03,10,17.40
2014,07,12,03,11,17.50
2014,07,12,03,12,17.50
2014,07,12,03,13,17.60
2014,07,12,03,14,17.60
2014,07,12,03,15,17.60
2014,07,12,03,16,17.70
2014,07,12,03,17,17.60
2014,07,12,03,18,17.60
2014,07,12,03,19,17.50
2014,07,12,03,20,17.40
2014,07,12,03,21,17.30
2014,07,12,03,22,17.20
2014,07,12,03,23,17.10
2014,07,12,03,24,17.10
2014,07,12,03,25,17.00
2014,07,12,03,26,16.90
2014,07,12,03,27,16.90
2014,07,12,03,28,16.90
2014,07,12,03,29,16.90
2014,07,12,03,30,16.90
2014,07,12,03,31,16.90
2014,07,12,03,32,17.00
2014,07,12,03,33,17.00
2014,07,12,03,34,17.00
2014,07,12,03,35,17.00
2014,07,12,03,36,17.00
2014,07,12,03,37,17.10
2014,07,12,03,38,17.00
2014,07,12,03,39,17.00
2014,07,12,03,40,17.00
2014,07,12,03,41,16.90
2014,07,12,03,42,16.90
2014,07,12,03,43,16.90
2014,07,12,03,44,16.90
2014,07,12,03,45,16.90
2014,07,12,03,46,16.90
2014,07,12,03,47,17.00
2014,07,12,03,48,17.00
2014,07,12,03,49,17.00
2014,07,12,03,50,17.10
2014,07,12,03,51,17.10
2014,07,12,03,52,17.10
2014,07,12,03,53,17.10
2014,07,12,03,54,17.10
2014,07,12,03,55,17.10
2014,07,12,03,56,17.10
2014,07,12,03,57,17.10
2014,07,12,03,58,17.10
2014,07,12,03,59,17.10
2014,07,12,04,00,17.10
2014,07,12,04,01,17.10
2014,07,12,04,02,17.10
2014,07,12,04,03,17.10
2014,07,12,04,04,17.10
2014,07,12,04,05,17.10
2014,07,12,04,06,17.10
2014,07,12,04,07,17.10
2014,07,12,04,08,17.00
2014,07,12,04,09,17.00
2014,07,12,04,10,16.90
2014,07,12,04,11,16.90
2014,07,12,04,12,16.80
2014,07,12,04,13,16.80
2014,07,12,04,14,16.70
2014,07,12,04,15,16.70
2014,07,12,04,16,16.60
2014,07,12,04,17,16.60
2014,07,12,04,18,16.50
2014,07,12,04,19,16.50
2014,07,12,04,20,16.40
2014,07,12,04,21,16.40
2014,07,12,04,22,16.40
2014,07,12,04,23,16.30
2014,07,12,04,24,16.30
2014,07,12,04,25,16.30
2014,07,12,04,26,16.20
2014,07,12,04,27,16.20
2014,07,12,04,28,16.10
2014,07,12,04,29,16.10
2014,07,12,04,30,16.10
2014,07,12,04,31,16.20
2014,07,12,04,32,16.20
2014,07,12,04,33,16.20
2014,07,12,04,34,16.20
2014,07,12,04,35,16.30
2014,07,12,04,36,16.30
2014,07,12,04,37,16.30
2014,07,12,04,38,16.30
2014,07,12,04,39,16.40
2014,07,12,04,40,16.40
2014,07,12,04,41,16.40
2014,07,12,04,42,16.50
2014,07,12,04,43,16.50
2014,07,12,04,44,16.50
2014,07,12,04,45,16.50
2014,07,12,04,46,16.60
2014,07,12,04,47,16.60
2014,07,12,04,48,16.60
2014,07,12,04,49,16.50
2014,07,12,04,50,16.50
2014,07,12,04,51,16.40
2014,07,12,04,52,16.40
2014,07,12,04,53,16.30
2014,07,12,04,54,16.30
2014,07,12,04,55,16.30
2014,07,12,04,56,16.20
2014,07,12,04,57,16.20
2014,07,12,04,58,16.20
2014,07,12,04,59,16.10
2014,07,12,05,00,16.10
2014,07,12,05,01,16.10
2014,07,12,05,02,16.10
2014,07,12,05,03,16.10
2014,07,12,05,04,16.00
2014,07,12,05,05,16.00
2014,07,12,05,06,16.00
2014,07,12,05,07,15.90
2014,07,12,05,08,15.90
2014,07,12,05,09,15.90
2014,07,12,05,10,15.90
2014,07,12,05,11,15.90
2014,07,12,05,12,15.90
2014,07,12,05,13,15.90
2014,07,12,05,14,15.90
2014,07,12,05,15,15.90
2014,07,12,05,16,15.90
2014,07,12,05,17,16.00
2014,07,12,05,18,16.00
2014,07,12,05,19,16.00
2014,07,12,05,20,16.00
2014,07,12,05,21,16.10
2014,07,12,05,22,16.20
2014,07,12,05,23,16.30
2014,07,12,05,24,16.40
2014,07,12,05,25,16.50
2014,07,12,05,26,16.60
2014,07,12,05,27,16.80
2014,07,12,05,28,16.90
2014,07,12,05,29,17.10
2014,07,12,05,30,17.20
2014,07,12,05,31,17.30
2014,07,12,05,32,17.40
2014,07,12,05,33,17.50
2014,07,12,05,34,17.60
2014,07,12,05,35,17.70
2014,07,12,05,36,17.70
2014,07,12,05,37,17.70
2014,07,12,05,38,17.70
2014,07,12,05,39,17.70
2014,07,12,05,40,17.60
2014,07,12,05,41,17.50
2014,07,12,05,42,17.50
2014,07,12,05,43,17.40
2014,07,12,05,44,17.40
2014,07,12,05,45,17.40
2014,07,12,05,46,17.40
2014,07,12,05,47,17.40
2014,07,12,05,48,17.40
2014,07,12,05,49,17.40
2014,07,12,05,50,17.40
2014,07,12,05,51,17.40
2014,07,12,05,52,17.40
2014,07,12,05,53,17.40
2014,07,12,05,54,17.40
2014,07,12,05,55,17.30
2014,07,12,05,56,17.30
2014,07,12,05,57,17.30
2014,07,12,05,58,17.30
2014,07,12,05,59,17.20
2014,07,12,06,00,17.20
2014,07,12,06,01,17.20
2014,07,12,06,02,17.20
2014,07,12,06,03,17.10
2014,07,12,06,04,17.10
2014,07,12,06,05,17.10
2014,07,12,06,06,17.00
2014,07,12,06,07,17.00
2014,07,12,06,08,17.00
2014,07,12,06,09,17.00
2014,07,12,06,10,17.00
2014,07,12,06,11,17.00
2014,07,12,06,12,17.10
2014,07,12,06,13,17.10
2014,07,12,06,14,17.10
2014,07,12,06,15,17.20
2014,07,12,06,16,17.20
2014,07,12,06,17,17.20
2014,07,12,06,18,17.30
2014,07,12,06,19,17.30
2014,07,12,06,20,17.30
2014,07,12,06,21,17.40
2014,07,12,06,22,17.40
2014,07,12,06,23,17.50
2014,07,12,06,24,17.50
2014,07,12,06,25,17.60
2014,07,12,06,26,17.60
2014,07,12,06,27,17.60
2014,07,12,06,28,17.60
2014,07,12,06,29,17.70
2014,07,12,06,30,17.70
2014,07,12,06,31,17.70
2014,07,12,06,32,17.80
2014,07,12,06,33,17.80
2014,07,12,06,34,17.80
2014,07,12,06,35,17.80
2014,07,12,06,36,17.80
2014,07,12,06,37,17.90
2014,07,12,06,38,17.90
2014,07,12,06,39,17.90
2014,07,12,06,40,18.00
2014,07,12,06,41,18.10
2014,07,12,06,42,18.20
2014,07,12,06,43,18.30
2014,07,12,06,44,18.40
2014,07,12,06,45,18.60
2014,07,12,06,46,18.70
2014,07,12,06,47,18.80
2014,07,12,06,48,19.00
2014,07,12,06,49,19.20
2014,07,12,06,50,19.30
2014,07,12,06,51,19.50
2014,07,12,06,52,19.60
2014,07,12,06,53,19.80
2014,07,12,06,54,19.90
2014,07,12,06,55,20.00
2014,07,12,06,56,20.10
2014,07,12,06,57,20.30
2014,07,12,06,58,20.40
2014,07,12,06,59,20.50
2014,07,12,07,00,20.60
2014,07,12,07,01,20.70
2014,07,12,07,02,20.80
2014,07,12,07,03,20.80
2014,07,12,07,04,20.90
2014,07,12,07,05,21.00
2014,07,12,07,06,21.10
2014,07,12,07,07,21.10
2014,07,12,07,08,21.20
2014,07,12,07,09,21.20
2014,07,12,07,10,21.30
2014,07,12,07,11,21.30
2014,07,12,07,12,21.30
2014,07,12,07,13,21.30
2014,07,12,07,14,21.30
2014,07,12,07,15,21.20
2014,07,12,07,16,21.20
2014,07,12,07,17,21.20
2014,07,12,07,18,21.10
2014,07,12,07,19,21.10
2014,07,12,07,20,21.00
2014,07,12,07,21,21.00
2014,07,12,07,22,20.90
2014,07,12,07,23,20.90
2014,07,12,07,24,20.90
2014,07,12,07,25,20.90
2014,07,12,07,26,20.90
2014,07,12,07,27,21.00
2014,07,12,07,28,21.00
2014,07,12,07,29,21.10
2014,07,12,07,30,21.10
2014,07,12,07,31,21.10
2014,07,12,07,32,21.10
2014,07,12,07,33,21.10
2014,07,12,07,34,21.10
2014,07,12,07,35,21.20
2014,07,12,07,36,21.20
2014,07,12,07,37,21.20
2014,07,12,07,38,21.30
2014,07,12,07,39,21.30
2014,07,12,07,40,21.40
2014,07,12,07,41,21.50
2014,07,12,07,42,21.50
2014,07,12,07,43,21.60
2014,07,12,07,44,21.70
2014,07,12,07,45,21.70
2014,07,12,07,46,21.70
2014,07,12,07,47,21.80
2014,07,12,07,48,21.80
2014,07,12,07,49,21.80
2014,07,12,07,50,21.90
2014,07,12,07,51,21.90
2014,07,12,07,52,21.90
2014,07,12,07,53,21.90
2014,07,12,07,54,21.90
2014,07,12,07,55,21.90
2014,07,12,07,56,22.00
2014,07,12,07,57,22.00
2014,07,12,07,58,22.10
2014,07,12,07,59,22.10
2014,07,12,08,00,22.10
2014,07,12,08,01,22.20
2014,07,12,08,02,22.20
2014,07,12,08,03,22.30
2014,07,12,08,04,22.30
2014,07,12,08,05,22.30
2014,07,12,08,06,22.40
2014,07,12,08,07,22.40
2014,07,12,08,08,22.40
2014,07,12,08,09,22.40
2014,07,12,08,10,22.40
2014,07,12,08,11,22.40
2014,07,12,08,12,22.50
2014,07,12,08,13,22.50
2014,07,12,08,14,22.50
2014,07,12,08,15,22.50
2014,07,12,08,16,22.50
2014,07,12,08,17,22.60
2014,07,12,08,18,22.60
2014,07,12,08,19,22.60
2014,07,12,08,20,22.60
2014,07,12,08,21,22.60
2014,07,12,08,22,22.60
2014,07,12,08,23,22.60
2014,07,12,08,24,22.70
2014,07,12,08,25,22.70
2014,07,12,08,26,22.70
2014,07,12,08,27,22.80
2014,07,12,08,28,22.80
2014,07,12,08,29,22.90
2014,07,12,08,30,22.90
2014,07,12,08,31,23.00
2014,07,12,08,32,23.10
2014,07,12,08,33,23.10
2014,07,12,08,34,23.20
2014,07,12,08,35,23.20
2014,07,12,08,36,23.30
2014,07,12,08,37,23.30
2014,07,12,08,38,23.30
2014,07,12,08,39,23.40
2014,07,12,08,40,23.40
2014,07,12,08,41,23.50
2014,07,12,08,42,23.50
2014,07,12,08,43,23.60
2014,07,12,08,44,23.70
2014,07,12,08,45,23.80
2014,07,12,08,46,23.90
2014,07,12,08,47,24.00
2014,07,12,08,48,24.00
2014,07,12,08,49,24.10
2014,07,12,08,50,24.20
2014,07,12,08,51,24.30
2014,07,12,08,52,24.30
2014,07,12,08,53,24.40
2014,07,12,08,54,24.40
2014,07,12,08,55,24.40
2014,07,12,08,56,24.40
2014,07,12,08,57,24.40
2014,07,12,08,58,24.40
2014,07,12,08,59,24.40
2014,07,12,09,00,24.40
2014,07,12,09,01,24.40
2014,07,12,09,02,24.40
2014,07,12,09,03,24.40
2014,07,12,09,04,24.40
2014,07,12,09,05,24.50
2014,07,12,09,06,24.50
2014,07,12,09,07,24.60
2014,07,12,09,08,24.60
2014,07,12,09,09,24.70
2014,07,12,09,10,24.80
2014,07,12,09,11,24.90
2014,07,12,09,12,25.00
2014,07,12,09,13,25.00
2014,07,12,09,14,25.00
2014,07,12,09,15,25.10
2014,07,12,09,16,25.10
2014,07,12,09,17,25.20
2014,07,12,09,18,25.30
2014,07,12,09,19,25.40
2014,07,12,09,20,25.50
2014,07,12,09,21,25.60
2014,07,12,09,22,25.60
2014,07,12,09,23,25.70
2014,07,12,09,24,25.60
2014,07,12,09,25,25.70
2014,07,12,09,26,25.70
2014,07,12,09,27,25.60
2014,07,12,09,28,25.60
2014,07,12,09,29,25.60
2014,07,12,09,30,25.60
2014,07,12,09,31,25.70
2014,07,12,09,32,25.70
2014,07,12,09,33,25.80
2014,07,12,09,34,25.70
2014,07,12,09,35,25.70
2014,07,12,09,36,25.70
2014,07,12,09,37,25.60
2014,07,12,09,38,25.50
2014,07,12,09,39,25.40
2014,07,12,09,40,25.30
2014,07,12,09,41,25.30
2014,07,12,09,42,25.30
2014,07,12,09,43,25.30
2014,07,12,09,44,25.40
2014,07,12,09,45,25.40
2014,07,12,09,46,25.40
2014,07,12,09,47,25.40
2014,07,12,09,48,25.30
2014,07,12,09,49,25.30
2014,07,12,09,50,25.30
2014,07,12,09,51,25.40
2014,07,12,09,52,25.40
2014,07,12,09,53,25.30
2014,07,12,09,54,25.30
2014,07,12,09,55,25.30
2014,07,12,09,56,25.30
2014,07,12,09,57,25.30
2014,07,12,09,58,25.40
2014,07,12,09,59,25.50
2014,07,12,10,00,25.60
2014,07,12,10,01,25.70
2014,07,12,10,02,25.80
2014,07,12,10,03,25.90
2014,07,12,10,04,25.90
2014,07,12,10,05,25.80
2014,07,12,10,06,25.80
2014,07,12,10,07,25.80
2014,07,12,10,08,25.80
2014,07,12,10,09,25.80
2014,07,12,10,10,25.80
2014,07,12,10,11,25.80
2014,07,12,10,12,25.80
2014,07,12,10,13,25.80
2014,07,12,10,14,25.70
2014,07,12,10,15,25.50
2014,07,12,10,16,25.50
2014,07,12,10,17,25.40
2014,07,12,10,18,25.50
2014,07,12,10,19,25.50
2014,07,12,10,20,25.60
2014,07,12,10,21,25.60
2014,07,12,10,22,25.50
2014,07,12,10,23,25.40
2014,07,12,10,24,25.40
2014,07,12,10,25,25.50
2014,07,12,10,26,25.50
2014,07,12,10,27,25.60
2014,07,12,10,28,25.60
2014,07,12,10,29,25.60
2014,07,12,10,30,25.70
2014,07,12,10,31,25.70
2014,07,12,10,32,25.70
2014,07,12,10,33,25.70
2014,07,12,10,34,25.60
2014,07,12,10,35,25.60
2014,07,12,10,36,25.70
2014,07,12,10,37,25.70
2014,07,12,10,38,25.70
2014,07,12,10,39,25.70
2014,07,12,10,40,25.80
2014,07,12,10,41,25.90
2014,07,12,10,42,26.10
2014,07,12,10,43,26.30
2014,07,12,10,44,26.40
2014,07,12,10,45,26.60
2014,07,12,10,46,26.60
2014,07,12,10,47,26.70
2014,07,12,10,48,26.70
2014,07,12,10,49,26.70
2014,07,12,10,50,26.70
2014,07,12,10,51,26.80
2014,07,12,10,52,26.90
2014,07,12,10,53,26.90
2014,07,12,10,54,27.00
2014,07,12,10,55,27.20
2014,07,12,10,56,27.20
2014,07,12,10,57,27.20
2014,07,12,10,58,27.20
2014,07,12,10,59,27.10
2014,07,12,11,00,27.00
2014,07,12,11,01,26.90
2014,07,12,11,02,26.90
2014,07,12,11,03,27.00
2014,07,12,11,04,27.00
2014,07,12,11,05,26.80
2014,07,12,11,06,26.70
2014,07,12,11,07,26.80
2014,07,12,11,08,26.70
2014,07,12,11,09,26.60
2014,07,12,11,10,26.50
2014,07,12,11,11,26.50
2014,07,12,11,12,26.70
2014,07,12,11,13,26.80
2014,07,12,11,14,26.80
2014,07,12,11,15,26.80
2014,07,12,11,16,26.80
2014,07,12,11,17,26.80
2014,07,12,11,18,26.70
2014,07,12,11,19,26.80
2014,07,12,11,20,26.80
2014,07,12,11,21,26.80
2014,07,12,11,22,26.80
2014,07,12,11,23,26.90
2014,07,12,11,24,26.90
2014,07,12,11,25,26.90
2014,07,12,11,26,26.80
2014,07,12,11,27,26.90
2014,07,12,11,28,27.00
2014,07,12,11,29,27.10
2014,07,12,11,30,27.10
2014,07,12,11,31,27.10
2014,07,12,11,32,26.90
2014,07,12,11,33,26.80
2014,07,12,11,34,26.70
2014,07,12,11,35,26.70
2014,07,12,11,36,26.60
2014,07,12,11,37,26.60
2014,07,12,11,38,26.50
2014,07,12,11,39,26.50
2014,07,12,11,40,26.50
2014,07,12,11,41,26.70
2014,07,12,11,42,26.60
2014,07,12,11,43,26.60
2014,07,12,11,44,26.60
2014,07,12,11,45,26.60
2014,07,12,11,46,26.50
2014,07,12,11,47,26.40
2014,07,12,11,48,26.40
2014,07,12,11,49,26.40
2014,07,12,11,50,26.50
2014,07,12,11,51,26.60
2014,07,12,11,52,26.60
2014,07,12,11,53,26.80
2014,07,12,11,54,26.80
2014,07,12,11,55,26.80
2014,07,12,11,56,26.80
2014,07,12,11,57,26.90
2014,07,12,11,58,27.10
2014,07,12,11,59,27.20
2014,07,12,12,00,27.20
2014,07,12,12,01,27.10
2014,07,12,12,02,27.20
2014,07,12,12,03,27.30
2014,07,12,12,04,27.30
2014,07,12,12,05,27.40
2014,07,12,12,06,27.40
2014,07,12,12,07,27.30
2014,07,12,12,08,27.20
2014,07,12,12,09,27.10
2014,07,12,12,10,27.00
2014,07,12,12,11,26.90
2014,07,12,12,12,26.80
2014,07,12,12,13,26.70
2014,07,12,12,14,26.70
2014,07,12,12,15,26.70
2014,07,12,12,16,26.80
2014,07,12,12,17,27.00
2014,07,12,12,18,27.10
2014,07,12,12,19,27.00
2014,07,12,12,20,26.90
2014,07,12,12,21,26.80
2014,07,12,12,22,26.70
2014,07,12,12,23,26.60
2014,07,12,12,24,26.60
2014,07,12,12,25,26.50
2014,07,12,12,26,26.60
2014,07,12,12,27,26.50
2014,07,12,12,28,26.50
2014,07,12,12,29,26.50
2014,07,12,12,30,26.50
2014,07,12,12,31,26.40
2014,07,12,12,32,26.50
2014,07,12,12,33,26.60
2014,07,12,12,34,26.70
2014,07,12,12,35,26.80
2014,07,12,12,36,26.90
2014,07,12,12,37,26.90
2014,07,12,12,38,26.80
2014,07,12,12,39,26.90
2014,07,12,12,40,27.00
2014,07,12,12,41,27.20
2014,07,12,12,42,27.30
2014,07,12,12,43,27.40
2014,07,12,12,44,27.60
2014,07,12,12,45,27.60
2014,07,12,12,46,27.70
2014,07,12,12,47,27.70
2014,07,12,12,48,27.80
2014,07,12,12,49,27.80
2014,07,12,12,50,27.70
2014,07,12,12,51,27.70
2014,07,12,12,52,27.60
2014,07,12,12,53,27.50
2014,07,12,12,54,27.50
2014,07,12,12,55,27.40
2014,07,12,12,56,27.40
2014,07,12,12,57,27.50
2014,07,12,12,58,27.50
2014,07,12,12,59,27.40
2014,07,12,13,00,27.40
2014,07,12,13,01,27.40
2014,07,12,13,02,27.40
2014,07,12,13,03,27.40
2014,07,12,13,04,27.40
2014,07,12,13,05,27.40
2014,07,12,13,06,27.40
2014,07,12,13,07,27.40
2014,07,12,13,08,27.50
2014,07,12,13,09,27.40
2014,07,12,13,10,27.40
2014,07,12,13,11,27.50
2014,07,12,13,12,27.60
2014,07,12,13,13,27.60
2014,07,12,13,14,27.60
2014,07,12,13,15,27.70
2014,07,12,13,16,27.70
2014,07,12,13,17,27.70
2014,07,12,13,18,27.70
2014,07,12,13,19,27.60
2014,07,12,13,20,27.50
2014,07,12,13,21,27.40
2014,07,12,13,22,27.30
2014,07,12,13,23,27.40
2014,07,12,13,24,27.50
2014,07,12,13,25,27.50
2014,07,12,13,26,27.40
2014,07,12,13,27,27.40
2014,07,12,13,28,27.50
2014,07,12,13,29,27.50
2014,07,12,13,30,27.50
2014,07,12,13,31,27.60
2014,07,12,13,32,27.70
2014,07,12,13,33,27.80
2014,07,12,13,34,27.80
2014,07,12,13,35,27.80
2014,07,12,13,36,27.80
2014,07,12,13,37,27.80
2014,07,12,13,38,27.90
2014,07,12,13,39,28.00
2014,07,12,13,40,28.10
2014,07,12,13,41,28.20
2014,07,12,13,42,28.40
2014,07,12,13,43,28.50
2014,07,12,13,44,28.60
2014,07,12,13,45,28.70
2014,07,12,13,46,28.80
2014,07,12,13,47,29.00
2014,07,12,13,48,29.00
2014,07,12,13,49,28.90
2014,07,12,13,50,28.80
2014,07,12,13,51,28.60
2014,07,12,13,52,28.50
2014,07,12,13,53,28.40
2014,07,12,13,54,28.50
2014,07,12,13,55,28.70
2014,07,12,13,56,28.60
2014,07,12,13,57,28.60
2014,07,12,13,58,28.60
2014,07,12,13,59,28.50
2014,07,12,14,00,28.40
2014,07,12,14,01,28.30
2014,07,12,14,02,28.30
2014,07,12,14,03,28.30
2014,07,12,14,04,28.30
2014,07,12,14,05,28.40
2014,07,12,14,06,28.30
2014,07,12,14,07,28.30
2014,07,12,14,08,28.20
2014,07,12,14,09,28.20
2014,07,12,14,10,28.30
2014,07,12,14,11,28.40
2014,07,12,14,12,28.50
2014,07,12,14,13,28.50
2014,07,12,14,14,28.60
2014,07,12,14,15,28.60
2014,07,12,14,16,28.50
2014,07,12,14,17,28.60
2014,07,12,14,18,28.60
2014,07,12,14,19,28.60
2014,07,12,14,20,28.60
2014,07,12,14,21,28.50
2014,07,12,14,22,28.50
2014,07,12,14,23,28.60
2014,07,12,14,24,28.70
2014,07,12,14,25,28.80
2014,07,12,14,26,29.00
2014,07,12,14,27,29.10
2014,07,12,14,28,29.00
2014,07,12,14,29,28.90
2014,07,12,14,30,28.80
2014,07,12,14,31,28.80
2014,07,12,14,32,28.80
2014,07,12,14,33,28.90
2014,07,12,14,34,29.00
2014,07,12,14,35,28.90
2014,07,12,14,36,28.80
2014,07,12,14,37,28.80
2014,07,12,14,38,28.70
2014,07,12,14,39,28.80
2014,07,12,14,40,29.00
2014,07,12,14,41,29.20
2014,07,12,14,42,29.20
2014,07,12,14,43,29.20
2014,07,12,14,44,29.10
2014,07,12,14,45,29.00
2014,07,12,14,46,28.90
2014,07,12,14,47,28.90
2014,07,12,14,48,28.90
2014,07,12,14,49,28.90
2014,07,12,14,50,29.00
2014,07,12,14,51,28.90
2014,07,12,14,52,28.90
2014,07,12,14,53,28.80
2014,07,12,14,54,28.80
2014,07,12,14,55,28.80
2014,07,12,14,56,28.80
2014,07,12,14,57,28.90
2014,07,12,14,58,28.80
2014,07,12,14,59,28.70
2014,07,12,15,00,28.80
2014,07,12,15,01,28.90
2014,07,12,15,02,29.00
2014,07,12,15,03,29.00
2014,07,12,15,04,29.00
2014,07,12,15,05,29.10
2014,07,12,15,06,29.10
2014,07,12,15,07,29.10
2014,07,12,15,08,29.00
2014,07,12,15,09,28.90
2014,07,12,15,10,28.80
2014,07,12,15,11,28.80
2014,07,12,15,12,28.90
2014,07,12,15,13,29.00
2014,07,12,15,14,29.10
2014,07,12,15,15,29.00
2014,07,12,15,16,29.00
2014,07,12,15,17,29.00
2014,07,12,15,18,29.00
2014,07,12,15,19,28.90
2014,07,12,15,20,28.90
2014,07,12,15,21,28.80
2014,07,12,15,22,28.80
2014,07,12,15,23,28.80
2014,07,12,15,24,28.80
2014,07,12,15,25,28.70
2014,07,12,15,26,28.60
2014,07,12,15,27,28.70
2014,07,12,15,28,28.80
2014,07,12,15,29,28.90
2014,07,12,15,30,28.90
2014,07,12,15,31,28.80
2014,07,12,15,32,28.80
2014,07,12,15,33,28.80
2014,07,12,15,34,28.80
2014,07,12,15,35,28.70
2014,07,12,15,36,28.70
2014,07,12,15,37,28.70
2014,07,12,15,38,28.70
2014,07,12,15,39,28.70
2014,07,12,15,40,28.60
2014,07,12,15,41,28.50
2014,07,12,15,42,28.40
2014,07,12,15,43,28.40
2014,07,12,15,44,28.30
2014,07,12,15,45,28.40
2014,07,12,15,46,28.30
2014,07,12,15,47,28.30
2014,07,12,15,48,28.20
2014,07,12,15,49,28.30
2014,07,12,15,50,28.40
2014,07,12,15,51,28.60
2014,07,12,15,52,28.70
2014,07,12,15,53,28.80
2014,07,12,15,54,28.80
2014,07,12,15,55,28.90
2014,07,12,15,56,28.90
2014,07,12,15,57,28.80
2014,07,12,15,58,28.80
2014,07,12,15,59,28.90
2014,07,12,16,00,28.90
2014,07,12,16,01,28.90
2014,07,12,16,02,28.90
2014,07,12,16,03,29.00
2014,07,12,16,04,29.00
2014,07,12,16,05,29.10
2014,07,12,16,06,29.00
2014,07,12,16,07,28.90
2014,07,12,16,08,28.80
2014,07,12,16,09,28.80
2014,07,12,16,10,28.90
2014,07,12,16,11,28.90
2014,07,12,16,12,28.90
2014,07,12,16,13,28.80
2014,07,12,16,14,28.80
2014,07,12,16,15,28.90
2014,07,12,16,16,29.10
2014,07,12,16,17,29.30
2014,07,12,16,18,29.40
2014,07,12,16,19,29.40
2014,07,12,16,20,29.30
2014,07,12,16,21,29.20
2014,07,12,16,22,29.20
2014,07,12,16,23,29.20
2014,07,12,16,24,29.20
2014,07,12,16,25,29.10
2014,07,12,16,26,29.10
2014,07,12,16,27,29.10
2014,07,12,16,28,29.10
2014,07,12,16,29,29.00
2014,07,12,16,30,29.00
2014,07,12,16,31,28.90
2014,07,12,16,32,28.90
2014,07,12,16,33,28.90
2014,07,12,16,34,28.90
2014,07,12,16,35,28.90
2014,07,12,16,36,28.90
2014,07,12,16,37,29.00
2014,07,12,16,38,29.00
2014,07,12,16,39,28.90
2014,07,12,16,40,28.90
2014,07,12,16,41,28.90
2014,07,12,16,42,28.90
2014,07,12,16,43,28.90
2014,07,12,16,44,28.80
2014,07,12,16,45,28.80
2014,07,12,16,46,28.80
2014,07,12,16,47,28.70
2014,07,12,16,48,28.70
2014,07,12,16,49,28.70
2014,07,12,16,50,28.70
2014,07,12,16,51,28.70
2014,07,12,16,52,28.70
2014,07,12,16,53,28.80
2014,07,12,16,54,28.80
2014,07,12,16,55,28.80
2014,07,12,16,56,29.00
2014,07,12,16,57,29.10
2014,07,12,16,58,29.20
2014,07,12,16,59,29.30
2014,07,12,17,00,29.40
2014,07,12,17,01,29.40
2014,07,12,17,02,29.40
2014,07,12,17,03,29.40
2014,07,12,17,04,29.40
2014,07,12,17,05,29.30
2014,07,12,17,06,29.40
2014,07,12,17,07,29.30
2014,07,12,17,08,29.30
2014,07,12,17,09,29.30
2014,07,12,17,10,29.30
2014,07,12,17,11,29.20
2014,07,12,17,12,29.20
2014,07,12,17,13,29.30
2014,07,12,17,14,29.40
2014,07,12,17,15,29.40
2014,07,12,17,16,29.40
2014,07,12,17,17,29.40
2014,07,12,17,18,29.40
2014,07,12,17,19,29.50